地点,時刻,積雪(cm)
第二松代,2022/02/26 23:00,270
第二松代,2022/02/27 00:00,268
第二松代,2022/02/27 01:00,268
第二松代,2022/02/27 02:00,268
第二松代,2022/02/27 03:00,267
第二松代,2022/02/27 04:00,267
第二松代,2022/02/27 05:00,267
第二松代,2022/02/27 06:00,266
第二松代,2022/02/27 07:00,266
第二松代,2022/02/27 08:00,265
第二松代,2022/02/27 09:00,265
第二松代,2022/02/27 10:00,265
第二松代,2022/02/27 11:00,265
第二松代,2022/02/27 12:00,268
第二松代,2022/02/27 13:00,270
第二松代,2022/02/27 14:00,271
第二松代,2022/02/27 15:00,270
第二松代,2022/02/27 16:00,270
第二松代,2022/02/27 17:00,269
第二松代,2022/02/27 18:00,269
第二松代,2022/02/27 19:00,268
第二松代,2022/02/27 20:00,268
第二松代,2022/02/27 21:00,267
第二松代,2022/02/27 22:00,267
第二松代,2022/02/27 23:00,267
第二松代,2022/02/28 00:00,266
第二松代,2022/02/28 01:00,266
第二松代,2022/02/28 02:00,266
第二松代,2022/02/28 03:00,265
第二松代,2022/02/28 04:00,265
第二松代,2022/02/28 05:00,265
第二松代,2022/02/28 06:00,264
第二松代,2022/02/28 07:00,264
第二松代,2022/02/28 08:00,264
第二松代,2022/02/28 09:00,264
第二松代,2022/02/28 10:00,264
第二松代,2022/02/28 11:00,263
第二松代,2022/02/28 12:00,263
第二松代,2022/02/28 13:00,262
第二松代,2022/02/28 14:00,262
第二松代,2022/02/28 15:00,262
第二松代,2022/02/28 16:00,261
第二松代,2022/02/28 17:00,261
第二松代,2022/02/28 18:00,261
第二松代,2022/02/28 19:00,261
第二松代,2022/02/28 20:00,261
第二松代,2022/02/28 21:00,260
第二松代,2022/02/28 22:00,260
第二松代,2022/02/28 23:00,260
第二松代,2022/03/01 00:00,260
第二松代,2022/03/01 01:00,260
第二松代,2022/03/01 02:00,260
第二松代,2022/03/01 03:00,260
第二松代,2022/03/01 04:00,259
第二松代,2022/03/01 05:00,259
第二松代,2022/03/01 06:00,259
第二松代,2022/03/01 07:00,259
第二松代,2022/03/01 08:00,259
第二松代,2022/03/01 09:00,259
第二松代,2022/03/01 10:00,258
第二松代,2022/03/01 11:00,258
第二松代,2022/03/01 12:00,257
第二松代,2022/03/01 13:00,256
第二松代,2022/03/01 14:00,256
第二松代,2022/03/01 15:00,256
第二松代,2022/03/01 16:00,255
第二松代,2022/03/01 17:00,255
第二松代,2022/03/01 18:00,256
第二松代,2022/03/01 19:00,256
第二松代,2022/03/01 20:00,256
第二松代,2022/03/01 21:00,255
第二松代,2022/03/01 22:00,256
第二松代,2022/03/01 23:00,256
第二松代,2022/03/02 00:00,256
第二松代,2022/03/02 01:00,256
第二松代,2022/03/02 02:00,256
第二松代,2022/03/02 03:00,256
第二松代,2022/03/02 04:00,255
第二松代,2022/03/02 05:00,255
第二松代,2022/03/02 06:00,255
第二松代,2022/03/02 07:00,255
第二松代,2022/03/02 08:00,255
第二松代,2022/03/02 09:00,255
第二松代,2022/03/02 10:00,255
第二松代,2022/03/02 11:00,255
第二松代,2022/03/02 12:00,254
第二松代,2022/03/02 13:00,254
第二松代,2022/03/02 14:00,254
第二松代,2022/03/02 15:00,254
第二松代,2022/03/02 16:00,254
第二松代,2022/03/02 17:00,253
第二松代,2022/03/02 18:00,254
第二松代,2022/03/02 19:00,253
第二松代,2022/03/02 20:00,253
第二松代,2022/03/02 21:00,253
第二松代,2022/03/02 22:00,253
第二松代,2022/03/02 23:00,253
第二松代,2022/03/03 00:00,253
第二松代,2022/03/03 01:00,253
第二松代,2022/03/03 02:00,253
第二松代,2022/03/03 03:00,252
第二松代,2022/03/03 04:00,252
第二松代,2022/03/03 05:00,255
第二松代,2022/03/03 06:00,258
第二松代,2022/03/03 07:00,259
第二松代,2022/03/03 08:00,262
第二松代,2022/03/03 09:00,263
第二松代,2022/03/03 10:00,262
第二松代,2022/03/03 11:00,262
第二松代,2022/03/03 12:00,261
第二松代,2022/03/03 13:00,261
第二松代,2022/03/03 14:00,262
第二松代,2022/03/03 15:00,262
第二松代,2022/03/03 16:00,262
第二松代,2022/03/03 17:00,263
第二松代,2022/03/03 18:00,263
第二松代,2022/03/03 19:00,262
第二松代,2022/03/03 20:00,262
第二松代,2022/03/03 21:00,262
第二松代,2022/03/03 22:00,262
第二松代,2022/03/03 23:00,262
第二松代,2022/03/04 00:00,262
第二松代,2022/03/04 01:00,262
第二松代,2022/03/04 02:00,261
第二松代,2022/03/04 03:00,261
第二松代,2022/03/04 04:00,261
第二松代,2022/03/04 05:00,261
第二松代,2022/03/04 06:00,261
第二松代,2022/03/04 07:00,260
第二松代,2022/03/04 08:00,260
第二松代,2022/03/04 09:00,260
第二松代,2022/03/04 10:00,260
第二松代,2022/03/04 11:00,260
第二松代,2022/03/04 12:00,260
第二松代,2022/03/04 13:00,259
第二松代,2022/03/04 14:00,259
第二松代,2022/03/04 15:00,259
第二松代,2022/03/04 16:00,258
第二松代,2022/03/04 17:00,258
第二松代,2022/03/04 18:00,258
第二松代,2022/03/04 19:00,258
第二松代,2022/03/04 20:00,258
第二松代,2022/03/04 21:00,258
第二松代,2022/03/04 22:00,258
第二松代,2022/03/04 23:00,258
第二松代,2022/03/05 00:00,258
第二松代,2022/03/05 01:00,258
第二松代,2022/03/05 02:00,258
第二松代,2022/03/05 03:00,257
第二松代,2022/03/05 04:00,257
第二松代,2022/03/05 05:00,257
第二松代,2022/03/05 06:00,257
第二松代,2022/03/05 07:00,257
第二松代,2022/03/05 08:00,257
第二松代,2022/03/05 09:00,256
第二松代,2022/03/05 10:00,256
第二松代,2022/03/05 11:00,255
第二松代,2022/03/05 12:00,255
第二松代,2022/03/05 13:00,255
第二松代,2022/03/05 14:00,256
第二松代,2022/03/05 15:00,255
第二松代,2022/03/05 16:00,256
第二松代,2022/03/05 17:00,258
第二松代,2022/03/05 18:00,258
第二松代,2022/03/05 19:00,257
第二松代,2022/03/05 20:00,257
第二松代,2022/03/05 21:00,256
第二松代,2022/03/05 22:00,256
第二松代,2022/03/05 23:00,256
第二松代,2022/03/06 00:00,256
第二松代,2022/03/06 01:00,256
第二松代,2022/03/06 02:00,256
第二松代,2022/03/06 03:00,256
第二松代,2022/03/06 04:00,256
第二松代,2022/03/06 05:00,256
第二松代,2022/03/06 06:00,256
第二松代,2022/03/06 07:00,256
第二松代,2022/03/06 08:00,258
第二松代,2022/03/06 09:00,261
第二松代,2022/03/06 10:00,264
第二松代,2022/03/06 11:00,264
第二松代,2022/03/06 12:00,266
第二松代,2022/03/06 13:00,267
第二松代,2022/03/06 14:00,267
第二松代,2022/03/06 15:00,268
第二松代,2022/03/06 16:00,267
第二松代,2022/03/06 17:00,268
第二松代,2022/03/06 18:00,268
第二松代,2022/03/06 19:00,267
第二松代,2022/03/06 20:00,268
第二松代,2022/03/06 21:00,268
第二松代,2022/03/06 22:00,267
第二松代,2022/03/06 23:00,267
第二松代,2022/03/07 00:00,267
第二松代,2022/03/07 01:00,267
第二松代,2022/03/07 02:00,267
第二松代,2022/03/07 03:00,267
第二松代,2022/03/07 04:00,267
第二松代,2022/03/07 05:00,267
第二松代,2022/03/07 06:00,267
第二松代,2022/03/07 07:00,268
第二松代,2022/03/07 08:00,268
第二松代,2022/03/07 09:00,269
第二松代,2022/03/07 10:00,270
第二松代,2022/03/07 11:00,269
第二松代,2022/03/07 12:00,270
第二松代,2022/03/07 13:00,270
第二松代,2022/03/07 14:00,270
第二松代,2022/03/07 15:00,269
第二松代,2022/03/07 16:00,269
第二松代,2022/03/07 17:00,270
第二松代,2022/03/07 18:00,270
第二松代,2022/03/07 19:00,270
第二松代,2022/03/07 20:00,269
第二松代,2022/03/07 21:00,269
第二松代,2022/03/07 22:00,269
第二松代,2022/03/07 23:00,269
第二松代,2022/03/08 00:00,269
第二松代,2022/03/08 01:00,269
第二松代,2022/03/08 02:00,269
第二松代,2022/03/08 03:00,268
第二松代,2022/03/08 04:00,268
第二松代,2022/03/08 05:00,268
第二松代,2022/03/08 06:00,268
第二松代,2022/03/08 07:00,268
第二松代,2022/03/08 08:00,268
第二松代,2022/03/08 09:00,268
第二松代,2022/03/08 10:00,268
第二松代,2022/03/08 11:00,268
第二松代,2022/03/08 12:00,268
第二松代,2022/03/08 13:00,267
第二松代,2022/03/08 14:00,267
第二松代,2022/03/08 15:00,267
第二松代,2022/03/08 16:00,266
第二松代,2022/03/08 17:00,266
第二松代,2022/03/08 18:00,266
第二松代,2022/03/08 19:00,266
第二松代,2022/03/08 20:00,266
第二松代,2022/03/08 21:00,266
第二松代,2022/03/08 22:00,266
第二松代,2022/03/08 23:00,266
第二松代,2022/03/09 00:00,266
第二松代,2022/03/09 01:00,266
第二松代,2022/03/09 02:00,266
第二松代,2022/03/09 03:00,266
第二松代,2022/03/09 04:00,266
第二松代,2022/03/09 05:00,266
第二松代,2022/03/09 06:00,266
第二松代,2022/03/09 07:00,266
第二松代,2022/03/09 08:00,266
第二松代,2022/03/09 09:00,266
第二松代,2022/03/09 10:00,266
第二松代,2022/03/09 11:00,265
第二松代,2022/03/09 12:00,265
第二松代,2022/03/09 13:00,265
第二松代,2022/03/09 14:00,265
第二松代,2022/03/09 15:00,264
第二松代,2022/03/09 16:00,264
第二松代,2022/03/09 17:00,264
第二松代,2022/03/09 18:00,264
第二松代,2022/03/09 19:00,264
第二松代,2022/03/09 20:00,264
第二松代,2022/03/09 21:00,264
第二松代,2022/03/09 22:00,264
第二松代,2022/03/09 23:00,264
第二松代,2022/03/10 00:00,263
第二松代,2022/03/10 01:00,263
第二松代,2022/03/10 02:00,263
第二松代,2022/03/10 03:00,263
第二松代,2022/03/10 04:00,263
第二松代,2022/03/10 05:00,263
第二松代,2022/03/10 06:00,263
第二松代,2022/03/10 07:00,263
第二松代,2022/03/10 08:00,263
第二松代,2022/03/10 09:00,263
第二松代,2022/03/10 10:00,263
第二松代,2022/03/10 11:00,263
第二松代,2022/03/10 12:00,263
第二松代,2022/03/10 13:00,262
第二松代,2022/03/10 14:00,262
第二松代,2022/03/10 15:00,261
第二松代,2022/03/10 16:00,261
第二松代,2022/03/10 17:00,260
第二松代,2022/03/10 18:00,260
第二松代,2022/03/10 19:00,260
第二松代,2022/03/10 20:00,260
第二松代,2022/03/10 21:00,260
第二松代,2022/03/10 22:00,260
第二松代,2022/03/10 23:00,260
第二松代,2022/03/11 00:00,260
第二松代,2022/03/11 01:00,260
第二松代,2022/03/11 02:00,260
第二松代,2022/03/11 03:00,260
第二松代,2022/03/11 04:00,260
第二松代,2022/03/11 05:00,259
第二松代,2022/03/11 06:00,259
第二松代,2022/03/11 07:00,259
第二松代,2022/03/11 08:00,259
第二松代,2022/03/11 09:00,258
第二松代,2022/03/11 10:00,258
第二松代,2022/03/11 11:00,258
第二松代,2022/03/11 12:00,257
第二松代,2022/03/11 13:00,256
第二松代,2022/03/11 14:00,255
第二松代,2022/03/11 15:00,254
第二松代,2022/03/11 16:00,253
第二松代,2022/03/11 17:00,253
第二松代,2022/03/11 18:00,252
第二松代,2022/03/11 19:00,252
第二松代,2022/03/11 20:00,252
第二松代,2022/03/11 21:00,251
第二松代,2022/03/11 22:00,251
第二松代,2022/03/11 23:00,251
第二松代,2022/03/12 00:00,250
第二松代,2022/03/12 01:00,250
第二松代,2022/03/12 02:00,249
第二松代,2022/03/12 03:00,249
第二松代,2022/03/12 04:00,249
第二松代,2022/03/12 05:00,249
第二松代,2022/03/12 06:00,249
第二松代,2022/03/12 07:00,248
第二松代,2022/03/12 08:00,248
第二松代,2022/03/12 09:00,248
第二松代,2022/03/12 10:00,248
第二松代,2022/03/12 11:00,248
第二松代,2022/03/12 12:00,247
第二松代,2022/03/12 13:00,247
第二松代,2022/03/12 14:00,246
第二松代,2022/03/12 15:00,245
第二松代,2022/03/12 16:00,244
第二松代,2022/03/12 17:00,244
第二松代,2022/03/12 18:00,244
第二松代,2022/03/12 19:00,244
第二松代,2022/03/12 20:00,244
第二松代,2022/03/12 21:00,243
第二松代,2022/03/12 22:00,243
第二松代,2022/03/12 23:00,243
第二松代,2022/03/13 00:00,243
第二松代,2022/03/13 01:00,243
第二松代,2022/03/13 02:00,243
第二松代,2022/03/13 03:00,242
第二松代,2022/03/13 04:00,242
第二松代,2022/03/13 05:00,242
第二松代,2022/03/13 06:00,242
第二松代,2022/03/13 07:00,242
第二松代,2022/03/13 08:00,242
第二松代,2022/03/13 09:00,242
第二松代,2022/03/13 10:00,241
第二松代,2022/03/13 11:00,242
第二松代,2022/03/13 12:00,244
第二松代,2022/03/13 13:00,243
第二松代,2022/03/13 14:00,242
第二松代,2022/03/13 15:00,242
第二松代,2022/03/13 16:00,241
第二松代,2022/03/13 17:00,241
第二松代,2022/03/13 18:00,241
第二松代,2022/03/13 19:00,240
第二松代,2022/03/13 20:00,240
第二松代,2022/03/13 21:00,239
第二松代,2022/03/13 22:00,239
第二松代,2022/03/13 23:00,239
第二松代,2022/03/14 00:00,239
第二松代,2022/03/14 01:00,239
第二松代,2022/03/14 02:00,238
第二松代,2022/03/14 03:00,238
第二松代,2022/03/14 04:00,238
第二松代,2022/03/14 05:00,238
第二松代,2022/03/14 06:00,237
第二松代,2022/03/14 07:00,237
第二松代,2022/03/14 08:00,237
第二松代,2022/03/14 09:00,236
第二松代,2022/03/14 10:00,236
第二松代,2022/03/14 11:00,236
第二松代,2022/03/14 12:00,235
第二松代,2022/03/14 13:00,234
第二松代,2022/03/14 14:00,233
第二松代,2022/03/14 15:00,232
第二松代,2022/03/14 16:00,232
第二松代,2022/03/14 17:00,231
第二松代,2022/03/14 18:00,231
第二松代,2022/03/14 19:00,230
第二松代,2022/03/14 20:00,230
第二松代,2022/03/14 21:00,230
第二松代,2022/03/14 22:00,230
第二松代,2022/03/14 23:00,229
第二松代,2022/03/15 00:00,229
第二松代,2022/03/15 01:00,228
第二松代,2022/03/15 02:00,228
第二松代,2022/03/15 03:00,228
第二松代,2022/03/15 04:00,227
第二松代,2022/03/15 05:00,227
第二松代,2022/03/15 06:00,226
第二松代,2022/03/15 07:00,225
第二松代,2022/03/15 08:00,224
第二松代,2022/03/15 09:00,224
第二松代,2022/03/15 10:00,222
第二松代,2022/03/15 11:00,221
第二松代,2022/03/15 12:00,220
第二松代,2022/03/15 13:00,219
第二松代,2022/03/15 14:00,217
第二松代,2022/03/15 15:00,216
第二松代,2022/03/15 16:00,216
第二松代,2022/03/15 17:00,215
第二松代,2022/03/15 18:00,214
第二松代,2022/03/15 19:00,214
第二松代,2022/03/15 20:00,214
第二松代,2022/03/15 21:00,213
第二松代,2022/03/15 22:00,213
第二松代,2022/03/15 23:00,213
第二松代,2022/03/16 00:00,213
第二松代,2022/03/16 01:00,213
第二松代,2022/03/16 02:00,212
第二松代,2022/03/16 03:00,213
第二松代,2022/03/16 04:00,213
第二松代,2022/03/16 05:00,214
第二松代,2022/03/16 06:00,214
第二松代,2022/03/16 07:00,213
第二松代,2022/03/16 08:00,213
第二松代,2022/03/16 09:00,213
第二松代,2022/03/16 10:00,212
第二松代,2022/03/16 11:00,211
第二松代,2022/03/16 12:00,210
第二松代,2022/03/16 13:00,209
第二松代,2022/03/16 14:00,208
第二松代,2022/03/16 15:00,208
第二松代,2022/03/16 16:00,208
第二松代,2022/03/16 17:00,207
第二松代,2022/03/16 18:00,207
第二松代,2022/03/16 19:00,207
第二松代,2022/03/16 20:00,207
第二松代,2022/03/16 21:00,206
第二松代,2022/03/16 22:00,206
第二松代,2022/03/16 23:00,208
第二松代,2022/03/17 00:00,208
第二松代,2022/03/17 01:00,208
第二松代,2022/03/17 02:00,209
第二松代,2022/03/17 03:00,209
第二松代,2022/03/17 04:00,210
第二松代,2022/03/17 05:00,210
第二松代,2022/03/17 06:00,210
第二松代,2022/03/17 07:00,210
第二松代,2022/03/17 08:00,210
第二松代,2022/03/17 09:00,210
第二松代,2022/03/17 10:00,210
第二松代,2022/03/17 11:00,209
第二松代,2022/03/17 12:00,208
第二松代,2022/03/17 13:00,208
第二松代,2022/03/17 14:00,208
第二松代,2022/03/17 15:00,208
第二松代,2022/03/17 16:00,208
第二松代,2022/03/17 17:00,208
第二松代,2022/03/17 18:00,208
第二松代,2022/03/17 19:00,208
第二松代,2022/03/17 20:00,208
第二松代,2022/03/17 21:00,208
第二松代,2022/03/17 22:00,208
第二松代,2022/03/17 23:00,208
第二松代,2022/03/18 00:00,208
第二松代,2022/03/18 01:00,208
第二松代,2022/03/18 02:00,208
第二松代,2022/03/18 03:00,208
第二松代,2022/03/18 04:00,207
第二松代,2022/03/18 05:00,207
第二松代,2022/03/18 06:00,207
第二松代,2022/03/18 07:00,207
第二松代,2022/03/18 08:00,207
第二松代,2022/03/18 09:00,207
第二松代,2022/03/18 10:00,207
第二松代,2022/03/18 11:00,207
第二松代,2022/03/18 12:00,207
第二松代,2022/03/18 13:00,206
第二松代,2022/03/18 14:00,206
第二松代,2022/03/18 15:00,206
第二松代,2022/03/18 16:00,206
第二松代,2022/03/18 17:00,206
第二松代,2022/03/18 18:00,206
第二松代,2022/03/18 19:00,206
第二松代,2022/03/18 20:00,206
第二松代,2022/03/18 21:00,206
第二松代,2022/03/18 22:00,208
第二松代,2022/03/18 23:00,208
第二松代,2022/03/19 00:00,209
第二松代,2022/03/19 01:00,210
第二松代,2022/03/19 02:00,212
第二松代,2022/03/19 03:00,213
第二松代,2022/03/19 04:00,216
第二松代,2022/03/19 05:00,217
第二松代,2022/03/19 06:00,218
第二松代,2022/03/19 07:00,219
第二松代,2022/03/19 08:00,220
第二松代,2022/03/19 09:00,220
第二松代,2022/03/19 10:00,220
第二松代,2022/03/19 11:00,219
第二松代,2022/03/19 12:00,217
第二松代,2022/03/19 13:00,215
第二松代,2022/03/19 14:00,214
第二松代,2022/03/19 15:00,214
第二松代,2022/03/19 16:00,213
第二松代,2022/03/19 17:00,213
第二松代,2022/03/19 18:00,213
第二松代,2022/03/19 19:00,213
第二松代,2022/03/19 20:00,213
第二松代,2022/03/19 21:00,212
第二松代,2022/03/19 22:00,212
第二松代,2022/03/19 23:00,212
第二松代,2022/03/20 00:00,213
第二松代,2022/03/20 01:00,214
第二松代,2022/03/20 02:00,213
第二松代,2022/03/20 03:00,214
第二松代,2022/03/20 04:00,214
第二松代,2022/03/20 05:00,216
第二松代,2022/03/20 06:00,216
第二松代,2022/03/20 07:00,216
第二松代,2022/03/20 08:00,216
第二松代,2022/03/20 09:00,216
第二松代,2022/03/20 10:00,216
第二松代,2022/03/20 11:00,216
第二松代,2022/03/20 12:00,216
第二松代,2022/03/20 13:00,217
第二松代,2022/03/20 14:00,219
第二松代,2022/03/20 15:00,220
第二松代,2022/03/20 16:00,220
第二松代,2022/03/20 17:00,220
第二松代,2022/03/20 18:00,220
第二松代,2022/03/20 19:00,220
第二松代,2022/03/20 20:00,220
第二松代,2022/03/20 21:00,220
第二松代,2022/03/20 22:00,220
第二松代,2022/03/20 23:00,219
第二松代,2022/03/21 00:00,219
第二松代,2022/03/21 02:00,222
第二松代,2022/03/21 03:00,222
第二松代,2022/03/21 04:00,222
第二松代,2022/03/21 05:00,222
第二松代,2022/03/21 06:00,221
第二松代,2022/03/21 07:00,222
第二松代,2022/03/21 08:00,222
第二松代,2022/03/21 09:00,222
第二松代,2022/03/21 10:00,222
第二松代,2022/03/21 11:00,222
第二松代,2022/03/21 12:00,221
第二松代,2022/03/21 13:00,221
第二松代,2022/03/21 14:00,220
第二松代,2022/03/21 15:00,220
第二松代,2022/03/21 16:00,220
第二松代,2022/03/21 17:00,220
第二松代,2022/03/21 18:00,220
第二松代,2022/03/21 19:00,220
第二松代,2022/03/21 20:00,220
第二松代,2022/03/21 21:00,219
第二松代,2022/03/21 22:00,219
第二松代,2022/03/21 23:00,219
第二松代,2022/03/22 00:00,219
第二松代,2022/03/22 01:00,219
第二松代,2022/03/22 02:00,219
第二松代,2022/03/22 03:00,219
第二松代,2022/03/22 04:00,219
第二松代,2022/03/22 05:00,219
第二松代,2022/03/22 06:00,219
第二松代,2022/03/22 07:00,218
第二松代,2022/03/22 08:00,218
第二松代,2022/03/22 09:00,218
第二松代,2022/03/22 10:00,218
第二松代,2022/03/22 11:00,216
第二松代,2022/03/22 12:00,216
第二松代,2022/03/22 13:00,214
第二松代,2022/03/22 14:00,213
第二松代,2022/03/22 15:00,213
第二松代,2022/03/22 16:00,212
第二松代,2022/03/22 17:00,212
第二松代,2022/03/22 18:00,212
第二松代,2022/03/22 19:00,212
第二松代,2022/03/22 20:00,212
第二松代,2022/03/22 21:00,212
第二松代,2022/03/22 22:00,212
第二松代,2022/03/22 23:00,212
第二松代,2022/03/23 00:00,212
第二松代,2022/03/23 01:00,212
第二松代,2022/03/23 02:00,212
第二松代,2022/03/23 03:00,212
第二松代,2022/03/23 04:00,212
第二松代,2022/03/23 05:00,212
第二松代,2022/03/23 06:00,212
第二松代,2022/03/23 07:00,212
第二松代,2022/03/23 08:00,212
第二松代,2022/03/23 09:00,212
第二松代,2022/03/23 10:00,212
第二松代,2022/03/23 11:00,211
第二松代,2022/03/23 13:00,210
第二松代,2022/03/23 17:00,209
第二松代,2022/03/23 21:00,209
第二松代,2022/03/23 22:00,209
第二松代,2022/03/24 09:00,209
第二松代,2022/03/24 13:00,207
第二松代,2022/03/24 14:00,207
第二松代,2022/03/24 15:00,207
第二松代,2022/03/24 17:00,207
第二松代,2022/03/24 22:00,207
第二松代,2022/03/24 23:00,207
第二松代,2022/03/25 00:00,207
第二松代,2022/03/25 02:00,207
第二松代,2022/03/25 05:00,207
第二松代,2022/03/25 07:00,207
第二松代,2022/03/25 09:00,207
第二松代,2022/04/08 15:00,137
第二松代,2022/04/08 16:00,136
第二松代,2022/04/08 17:00,136
第二松代,2022/04/08 18:00,136
第二松代,2022/04/08 19:00,136
第二松代,2022/04/08 20:00,136
第二松代,2022/04/08 21:00,136
第二松代,2022/04/08 22:00,136
第二松代,2022/04/08 23:00,136
第二松代,2022/04/09 00:00,136
第二松代,2022/04/09 01:00,136
第二松代,2022/04/09 02:00,136
第二松代,2022/04/09 03:00,136
第二松代,2022/04/09 04:00,136
第二松代,2022/04/09 05:00,136
第二松代,2022/04/09 06:00,136
第二松代,2022/04/09 07:00,136
第二松代,2022/04/09 08:00,135
第二松代,2022/04/09 09:00,135
第二松代,2022/04/09 10:00,134
第二松代,2022/04/09 11:00,133
第二松代,2022/04/09 12:00,131
第二松代,2022/04/09 13:00,129
第二松代,2022/04/09 14:00,127
第二松代,2022/04/09 15:00,126
第二松代,2022/04/09 16:00,124
第二松代,2022/04/09 17:00,124
第二松代,2022/04/09 18:00,124
第二松代,2022/04/09 19:00,124
第二松代,2022/04/09 20:00,124
第二松代,2022/04/09 21:00,124
第二松代,2022/04/09 22:00,124
第二松代,2022/04/09 23:00,124
第二松代,2022/04/10 00:00,123
第二松代,2022/04/10 01:00,124
第二松代,2022/04/10 02:00,123
第二松代,2022/04/10 03:00,123
第二松代,2022/04/10 04:00,123
第二松代,2022/04/10 05:00,122
第二松代,2022/04/10 06:00,122
第二松代,2022/04/10 07:00,122
第二松代,2022/04/10 08:00,122
第二松代,2022/04/10 09:00,122
第二松代,2022/04/10 10:00,120
第二松代,2022/04/10 11:00,119
第二松代,2022/04/10 12:00,118
第二松代,2022/04/10 13:00,117
第二松代,2022/04/10 14:00,116
第二松代,2022/04/10 15:00,114
第二松代,2022/04/10 16:00,113
第二松代,2022/04/10 17:00,112
第二松代,2022/04/10 18:00,111
第二松代,2022/04/10 19:00,111
第二松代,2022/04/10 20:00,111
第二松代,2022/04/10 21:00,110
第二松代,2022/04/10 22:00,109
第二松代,2022/04/10 23:00,109
第二松代,2022/04/11 00:00,109
第二松代,2022/04/11 01:00,108
第二松代,2022/04/11 02:00,108
第二松代,2022/04/11 03:00,108
第二松代,2022/04/11 04:00,107
第二松代,2022/04/11 05:00,107
第二松代,2022/04/11 06:00,106
第二松代,2022/04/11 07:00,106
第二松代,2022/04/11 08:00,106
第二松代,2022/04/11 09:00,106
第二松代,2022/04/11 10:00,105
第二松代,2022/04/11 11:00,104
第二松代,2022/04/11 12:00,102
第二松代,2022/04/11 13:00,100
第二松代,2022/04/11 14:00,99
第二松代,2022/04/11 15:00,98
第二松代,2022/04/11 16:00,97
第二松代,2022/04/11 17:00,97
第二松代,2022/04/11 18:00,96
第二松代,2022/04/11 19:00,96
第二松代,2022/04/11 20:00,96
第二松代,2022/04/11 21:00,96
第二松代,2022/04/11 22:00,95
第二松代,2022/04/11 23:00,95
第二松代,2022/04/12 00:00,94
第二松代,2022/04/12 01:00,95
第二松代,2022/04/12 02:00,94
第二松代,2022/04/12 03:00,94
第二松代,2022/04/12 04:00,94
第二松代,2022/04/12 05:00,93
第二松代,2022/04/12 06:00,93
第二松代,2022/04/12 07:00,93
第二松代,2022/04/12 08:00,92
第二松代,2022/04/12 09:00,93
第二松代,2022/04/12 10:00,92
第二松代,2022/04/12 11:00,90
第二松代,2022/04/12 12:00,89
第二松代,2022/04/12 13:00,87
第二松代,2022/04/12 14:00,86
第二松代,2022/04/12 15:00,84
第二松代,2022/04/12 16:00,84
第二松代,2022/04/12 17:00,83
第二松代,2022/04/12 18:00,83
第二松代,2022/04/12 19:00,83
第二松代,2022/04/12 20:00,82
第二松代,2022/04/12 21:00,82
第二松代,2022/04/12 22:00,82
第二松代,2022/04/12 23:00,81
第二松代,2022/04/13 00:00,81
第二松代,2022/04/13 01:00,80
第二松代,2022/04/13 02:00,80
第二松代,2022/04/13 03:00,79
第二松代,2022/04/13 04:00,79
第二松代,2022/04/13 05:00,79
第二松代,2022/04/13 06:00,79
第二松代,2022/04/13 07:00,79
第二松代,2022/04/13 08:00,79
第二松代,2022/04/13 09:00,79
第二松代,2022/04/13 10:00,78
第二松代,2022/04/13 11:00,78
第二松代,2022/04/13 12:00,78
第二松代,2022/04/13 13:00,78
第二松代,2022/04/13 14:00,77
第二松代,2022/04/13 15:00,77
第二松代,2022/04/13 16:00,77
第二松代,2022/04/13 17:00,76
第二松代,2022/04/13 18:00,76
第二松代,2022/04/13 19:00,76
第二松代,2022/04/13 20:00,76
第二松代,2022/04/13 21:00,76
第二松代,2022/04/13 22:00,76
第二松代,2022/04/13 23:00,76
第二松代,2022/04/14 00:00,76
第二松代,2022/04/14 01:00,76
第二松代,2022/04/14 02:00,76
第二松代,2022/04/14 03:00,76
第二松代,2022/04/14 04:00,76
第二松代,2022/04/14 05:00,76
第二松代,2022/04/14 06:00,76
第二松代,2022/04/14 07:00,76
第二松代,2022/04/14 08:00,76
第二松代,2022/04/14 09:00,76
第二松代,2022/04/14 10:00,74
第二松代,2022/04/14 11:00,74
第二松代,2022/04/14 12:00,74
第二松代,2022/04/14 13:00,73
第二松代,2022/04/14 14:00,73
第二松代,2022/04/14 15:00,72
第二松代,2022/04/14 16:00,72
第二松代,2022/04/14 17:00,72
第二松代,2022/04/14 18:00,72
第二松代,2022/04/14 19:00,72
第二松代,2022/04/14 20:00,72
第二松代,2022/04/14 21:00,71
第二松代,2022/04/14 22:00,71
第二松代,2022/04/14 23:00,71
第二松代,2022/04/15 00:00,71
第二松代,2022/04/15 01:00,71
第二松代,2022/04/15 02:00,71
第二松代,2022/04/15 03:00,71
第二松代,2022/04/15 04:00,71
第二松代,2022/04/15 05:00,71
第二松代,2022/04/15 06:00,71
第二松代,2022/04/15 07:00,71
第二松代,2022/04/15 08:00,71
第二松代,2022/04/15 09:00,71
第二松代,2022/04/15 10:00,71
第二松代,2022/04/15 11:00,70
第二松代,2022/04/15 12:00,70
第二松代,2022/04/15 13:00,70
第二松代,2022/04/15 14:00,69
第二松代,2022/04/15 15:00,69
第二松代,2022/04/15 16:00,69
第二松代,2022/04/15 17:00,69
第二松代,2022/04/15 18:00,69
第二松代,2022/04/15 19:00,69
第二松代,2022/04/15 20:00,69
第二松代,2022/04/15 21:00,69
第二松代,2022/04/15 22:00,69
第二松代,2022/04/15 23:00,69
第二松代,2022/04/16 00:00,69
第二松代,2022/04/16 01:00,69
第二松代,2022/04/16 02:00,69
第二松代,2022/04/16 03:00,69
第二松代,2022/04/16 04:00,68
第二松代,2022/04/16 05:00,68
第二松代,2022/04/16 06:00,68
第二松代,2022/04/16 07:00,68
第二松代,2022/04/16 08:00,68
第二松代,2022/04/16 09:00,68
第二松代,2022/04/16 10:00,67
第二松代,2022/04/16 11:00,66
第二松代,2022/04/16 12:00,66
第二松代,2022/04/16 13:00,65
第二松代,2022/04/16 14:00,63
第二松代,2022/04/16 15:00,63
第二松代,2022/04/16 16:00,62
第二松代,2022/04/16 17:00,62
第二松代,2022/04/16 18:00,62
第二松代,2022/04/16 19:00,62
第二松代,2022/04/16 20:00,63
第二松代,2022/04/16 21:00,63
第二松代,2022/04/16 22:00,62
第二松代,2022/04/16 23:00,62
第二松代,2022/04/17 00:00,62
第二松代,2022/04/17 01:00,62
第二松代,2022/04/17 02:00,62
第二松代,2022/04/17 03:00,62
第二松代,2022/04/17 04:00,62
第二松代,2022/04/17 05:00,62
第二松代,2022/04/17 06:00,62
第二松代,2022/04/17 07:00,62
第二松代,2022/04/17 08:00,61
第二松代,2022/04/17 09:00,62
第二松代,2022/04/17 10:00,62
第二松代,2022/04/17 11:00,60
第二松代,2022/04/17 12:00,59
第二松代,2022/04/17 13:00,58
第二松代,2022/04/17 14:00,57
第二松代,2022/04/17 15:00,56
第二松代,2022/04/17 16:00,56
第二松代,2022/04/17 17:00,56
第二松代,2022/04/17 18:00,56
第二松代,2022/04/17 19:00,56
第二松代,2022/04/17 20:00,56
第二松代,2022/04/17 21:00,56
第二松代,2022/04/17 22:00,56
第二松代,2022/04/17 23:00,56
第二松代,2022/04/18 00:00,56
第二松代,2022/04/18 01:00,56
第二松代,2022/04/18 02:00,56
第二松代,2022/04/18 03:00,56
第二松代,2022/04/18 04:00,56
第二松代,2022/04/18 05:00,56
第二松代,2022/04/18 06:00,56
第二松代,2022/04/18 07:00,56
第二松代,2022/04/18 08:00,56
第二松代,2022/04/18 09:00,56
第二松代,2022/04/18 10:00,55
第二松代,2022/04/18 11:00,54
第二松代,2022/04/18 12:00,53
第二松代,2022/04/18 13:00,52
第二松代,2022/04/18 14:00,52
第二松代,2022/04/18 15:00,51
第二松代,2022/04/18 16:00,51
第二松代,2022/04/18 17:00,51
第二松代,2022/04/18 18:00,51
第二松代,2022/04/18 19:00,50
第二松代,2022/04/18 20:00,50
第二松代,2022/04/18 21:00,50
第二松代,2022/04/18 22:00,50
第二松代,2022/04/18 23:00,50
第二松代,2022/04/19 00:00,50
第二松代,2022/04/19 01:00,50
第二松代,2022/04/19 02:00,49
第二松代,2022/04/19 03:00,49
第二松代,2022/04/19 04:00,49
第二松代,2022/04/19 05:00,49
第二松代,2022/04/19 06:00,49
第二松代,2022/04/19 07:00,49
第二松代,2022/04/19 08:00,49
第二松代,2022/04/19 09:00,49
第二松代,2022/04/19 10:00,48
第二松代,2022/04/19 11:00,47
第二松代,2022/04/19 12:00,45
第二松代,2022/04/19 13:00,44
第二松代,2022/04/19 14:00,43
第二松代,2022/04/19 15:00,41
第二松代,2022/04/19 16:00,41
第二松代,2022/04/19 17:00,41
第二松代,2022/04/19 18:00,41
第二松代,2022/04/19 19:00,41
第二松代,2022/04/19 20:00,41
第二松代,2022/04/19 21:00,41
第二松代,2022/04/19 22:00,41
第二松代,2022/04/19 23:00,41
第二松代,2022/04/20 00:00,41
第二松代,2022/04/20 01:00,41
第二松代,2022/04/20 02:00,41
第二松代,2022/04/20 03:00,41
第二松代,2022/04/20 04:00,41
第二松代,2022/04/20 05:00,41
第二松代,2022/04/20 06:00,41
第二松代,2022/04/20 07:00,42
第二松代,2022/04/20 08:00,41
第二松代,2022/04/20 09:00,41
第二松代,2022/04/20 10:00,40
第二松代,2022/04/20 11:00,39
第二松代,2022/04/20 12:00,38
第二松代,2022/04/20 13:00,37
第二松代,2022/04/20 14:00,35
第二松代,2022/04/20 15:00,34
第二松代,2022/04/20 16:00,34
第二松代,2022/04/20 17:00,32
第二松代,2022/04/20 18:00,33